Findlay, OH

3:05 PM EDT on July 21, 2017 (GMT -0400)
Findlay

Weather History for KFDY - April, 2012

Change the Weather History Date:

Thursday, April 19, 2012

  Actual Average Record
Temperature  
Mean Temperature 60 °F -  
Max Temperature 77 °F 61 °F 84 °F (2002)
Min Temperature 45 °F 42 °F 23 °F (1953)
Degree Days  
Heating Degree Days 5    
Growing Degree Days 10 (Base 50)    
Moisture  
Dew Point 42 °F    
Average Humidity 51    
Maximum Humidity 76    
Minimum Humidity 31    
Precipitation  
Precipitation 0.00 in - - ()
Sea Level Pressure  
Sea Level Pressure 29.96 in    
Wind  
Wind Speed 9 mph (SSW)    
Max Wind Speed 13 mph    
Max Gust Speed 22 mph    
Visibility 10 miles    
Events      
Averages and records for this station are not official NWS values.
T = Trace of Precipitation, MM = Missing Value Source: NWS Daily Summary

Daily Weather History Graph

Daily Weather History Graph

Search for Another Location

Airport or City:

Trip Planner

Search our weather history database for the weather conditions in past years. The results will help you decide how hot, cold, wet, or windy it might be!

Date:

Astronomy

Apr. 19, 2012 Rise Set
Actual Time 6:48 AM EDT 8:19 PM EDT
Civil Twilight 6:19 AM EDT 8:48 PM EDT
Nautical Twilight 5:45 AM EDT 9:23 PM EDT
Astronomical Twilight 5:08 AM EDT 10:00 PM EDT
Moon 5:42 AM EDT (4/19) 7:06 PM EDT (4/19)
Length of Visible Light 14h 28m
Length of Day
13h 30m
Waning Crescent, 2% of the Moon is Illuminated
Apr 19
Waning Crescent
Apr 21
New
Apr 29
First Quarter
May 5
Full
May 12
Last Quarter

Hourly Weather History & Observations

Time (EDT) Temp. Windchill Dew Point Humidity Pressure Visibility Wind Dir Wind Speed Gust Speed Precip Events Conditions
12:53 AM 48.9 °F - 37.0 °F 64% 30.03 in 10.0 mi South 8.1 mph - N/A   Clear
1:53 AM 48.0 °F - 37.0 °F 66% 30.02 in 10.0 mi SSW 6.9 mph - N/A   Clear
2:53 AM 46.9 °F - 37.0 °F 68% 30.01 in 10.0 mi South 8.1 mph - N/A   Clear
3:53 AM 46.0 °F 42.5 °F 37.0 °F 71% 30.01 in 10.0 mi South 6.9 mph - N/A   Clear
4:53 AM 45.0 °F 40.6 °F 37.9 °F 76% 30.01 in 10.0 mi South 8.1 mph - N/A   Partly Cloudy
5:53 AM 51.1 °F - 39.0 °F 63% 30.01 in 10.0 mi SSW 10.4 mph - N/A   Overcast
6:53 AM 51.1 °F - 39.9 °F 66% 30.01 in 10.0 mi South 9.2 mph - N/A   Overcast
7:53 AM 53.1 °F - 41.0 °F 64% 30.02 in 10.0 mi SSW 5.8 mph - N/A   Overcast
8:53 AM 57.0 °F - 42.1 °F 57% 30.03 in 10.0 mi SSW 3.5 mph - N/A   Overcast
9:53 AM 61.0 °F - 42.1 °F 50% 30.03 in 10.0 mi SW 8.1 mph - N/A   Overcast
10:53 AM 66.0 °F - 44.1 °F 45% 30.02 in 10.0 mi SW 10.4 mph - N/A   Overcast
11:53 AM 68.0 °F - 43.0 °F 40% 30.02 in 10.0 mi West 12.7 mph - N/A   Mostly Cloudy
12:53 PM 71.1 °F - 44.1 °F 38% 30.00 in 10.0 mi WSW 11.5 mph - N/A   Mostly Cloudy
1:53 PM 75.0 °F - 43.0 °F 32% 29.98 in 10.0 mi SW 10.4 mph 19.6 mph N/A   Mostly Cloudy
2:53 PM 75.0 °F - 44.1 °F 33% 29.96 in 10.0 mi WSW 9.2 mph 21.9 mph N/A   Partly Cloudy
3:53 PM 75.9 °F - 43.0 °F 31% 29.92 in 10.0 mi SW 10.4 mph 18.4 mph N/A   Clear
4:53 PM 75.9 °F - 43.0 °F 31% 29.90 in 10.0 mi SSW 11.5 mph 19.6 mph N/A   Clear
5:53 PM 73.9 °F - 43.0 °F 33% 29.88 in 10.0 mi SW 8.1 mph - N/A   Mostly Cloudy
6:53 PM 73.0 °F - 43.0 °F 34% 29.88 in 10.0 mi SSW 11.5 mph - N/A   Partly Cloudy
7:53 PM 69.1 °F - 44.1 °F 40% 29.87 in 10.0 mi South 11.5 mph - N/A   Clear
8:53 PM 63.0 °F - 43.0 °F 48% 29.88 in 10.0 mi South 9.2 mph - N/A   Partly Cloudy
9:53 PM 63.0 °F - 44.1 °F 50% 29.88 in 10.0 mi South 8.1 mph - N/A   Clear
10:53 PM 61.0 °F - 44.1 °F 54% 29.87 in 10.0 mi South 10.4 mph - N/A   Clear
11:53 PM 57.9 °F - 45.0 °F 62% 29.87 in 10.0 mi South 9.2 mph - N/A   Clear